Regional Weather Roundup
Issued by NWS

Home | Current Version | Previous Version | Graphics & Text | Print | Product List | Glossary On
Versions: 1 2 3 4 5 6 7 8 9 10 11 12 13 14 15 16 17 18 19 20 21 22 23 24 25 26 27 28 29 30 31 32 33 34 35 36 37 38 39 40 41 42 43 44 45 46 47 48 49 50
000
ASUS43 KDTX 202110
RWRMI
MICHIGAN HOURLY REGIONAL WEATHER ROUNDUP
NATIONAL WEATHER SERVICE DETROIT/PONTIAC MI
500 PM EDT WED AUG 20 2014

NOTE: "FAIR" INDICATES FEW OR NO CLOUDS BELOW 12,000 FEET WITH NO
SIGNIFICANT WEATHER AND/OR OBSTRUCTION TO VISIBILITY.

MIZ047>049-052>055-059>063-066>070-074>076-081>083-202200-
SOUTHEAST LOWER MICHIGAN

CITY           SKY/WX    TMP DP  RH WIND       PRES   REMARKS
ADRIAN         PTSUNNY   81  64  56 NW10      29.90F
ALMA           LGT RAIN  69  66  91 W5        29.89R
ANN ARBOR      PTSUNNY   79  65  62 W8        29.89S
BAD AXE        PTSUNNY   75  70  84 NW6       29.87S
DETROIT CITY   PTSUNNY   84  62  47 W15       29.87R
DETROIT        PTSUNNY   84  65  52 SW16      29.88S
FLINT          PTSUNNY   83  64  52 W13       29.87S
GROSSE ILE     MOSUNNY   84  66  54 W10G16    29.86F
HILLSDALE      SUNNY     82  66  57 W10       29.91F
HOWELL         PTSUNNY   78  63  60 W13G20    29.89S

CITY           SKY/WX    TMP DP  RH WIND       PRES   REMARKS
JACKSON        PTSUNNY   78  64  61 W7        29.90F
LAMBERTVILLE   MOSUNNY   82  68  61 W8        29.89F
LANSING        PTSUNNY   78  63  59 W13       29.90R
LAPEER         NOT AVBL
MASON          CLOUDY    79  64  59 W14G20    29.90S
MONROE         MOSUNNY   82  64  54 W12G20    29.87S
MT. CLEMENS    PTSUNNY   82  62  49 W15       29.85R
PONTIAC        PTSUNNY   78  64  61 SW12      29.88S
PORT HOPE        N/A     71  67  87 CALM      29.85R
PORT HURON     PTSUNNY   77  70  78 CALM      29.86S
TRI CITIES     CLOUDY    79  66  64 W10       29.87R
YPSILANTI      MOSUNNY   86  64  47 W15       29.89R
$$
MIZ043>046-050>051-056>058-064>065-071>073-077>080-202200-
SOUTHWEST LOWER MICHIGAN

CITY           SKY/WX    TMP DP  RH WIND       PRES   REMARKS
BATTLE CREEK   SUNNY     81  61  50 W15       29.91F
BENTON HARBOR  SUNNY     82  64  54 W9        29.88F
BIG RAPIDS     PTSUNNY   75  64  69 W12G17    29.89S
COLDWATER      MOSUNNY   83  64  52 W10G17    29.91S
HOLLAND        SUNNY     79  65  62 W7        29.91F
GRAND RAPIDS   MOSUNNY   79  66  64 W14G23    29.90F
KALAMAZOO      MOSUNNY   83  63  50 NW13G21   29.91S
MARSHALL       SUNNY     81  64  54 W14G20    29.90S
MUSKEGON       MOSUNNY   75  63  66 VRB3      29.90F
$$
MIZ016>042-202200-
NORTHERN LOWER MICHIGAN

CITY           SKY/WX    TMP DP  RH WIND       PRES   REMARKS
ALPENA         CLOUDY    72  66  81 N5        29.86R
BEAVER ISLAND  CLOUDY    64  63  97 W5        29.90R FOG
BELLAIRE       CLOUDY    67  61  80 NW6       29.89R
CADILLAC       CLOUDY    70  62  76 W9        29.90S
CHARLEVOIX     CLOUDY    65  63  94 W10       29.93R
FRANKFORT      CLOUDY    69  61  76 W7        29.90S
GAYLORD        CLOUDY    67  60  78 W8        29.90R
GRAYLING       CLOUDY    74  65  73 W8        29.90R
HARBOR SPRINGS CLOUDY    64  61  91 W5        29.90R
HOUGHTON LAKE  CLOUDY    73  62  68 W8        29.89R
MANISTEE       PTSUNNY   70  59  68 W10       29.91S
OSCODA         CLOUDY    72  69  91 SW9       29.84S
PELLSTON       CLOUDY    66  62  87 SW7       29.89R
TRAVERSE CITY  CLOUDY    71  60  68 W7        29.88R
$$
MIZ007>008-015-202200-
EASTERN UPPER MICHIGAN

CITY           SKY/WX    TMP DP  RH WIND       PRES   REMARKS
KINROSS        CLOUDY    66  66 100 CALM      29.88R
MACKINAC ISLAN CLOUDY    64  64 100 W3        29.87S FOG
NEWBERRY       CLOUDY    64  62  93 NW9       29.89R
S. S. MARIE    CLOUDY    68  64  87 SE3       29.87S
$$
MIZ004>006-011>014-085-202200-
CENTRAL UPPER MICHIGAN

CITY           SKY/WX    TMP DP  RH WIND       PRES   REMARKS
MANISTIQUE     CLOUDY    64  63  94 N7        29.88S FOG
ESCANABA       CLOUDY    64  61  88 CALM      29.89S
MENOMINEE      CLOUDY    72  63  73 SE6       29.88R
SAWYER-GWINN   CLOUDY    64  59  82 W3        29.90R
$$
MIZ001>003-009>011-084-202200-
WESTERN UPPER MICHIGAN

CITY           SKY/WX    TMP DP  RH WIND       PRES   REMARKS
IRON MOUNTAIN  CLOUDY    69  59  70 NW3       29.89S
HOUGHTON       CLOUDY    62  58  86 NW8       29.91R
COPPER HARBOR    N/A     55  54  96 N5        29.90S
IRONWOOD       CLOUDY    66  63  88 N6        29.90R
$$

ABBREVIATIONS USED IN REMARKS
   TC - TEMPERATURE IN CELSIUS
  WCI - WIND CHILL INDEX
   HX - HEAT INDEX
  VSB - VISIBILITY



USA.gov is the U.S. government's official web portal to all federal, state and local government web resources and services.